Voltar ao catálogo

KUIPER-00405

AtivoComunicaçõesLEO
NORAD 68923·PAYLOAD·🇺🇸 United States

Lançado Apr 30, 2026 de Guiana Space Centre

Loading…

Próximas Passagens (próximas 24 horas)

TLE

AtualizadoSource: CelesTrak SupGP

Época: Sep 14, 2026, 22:21 UTC

1 68923C 26098E   26257.93128472  .00004689  00000+0  61393-3 0  2579
2 68923  51.9022  23.8224 0000954 185.4032 172.0743 14.79915825    17

Acompanhe KUIPER-00405 em tempo real com AllMySat

Download on the App Store